Simultaneous Nadir Overpasses (SNOs) Predictions

Prediction of SNOs between LANDSAT-8 and METOP-A Satellite Orbit:

Table of predicted SNOs for the next 14.0 days since TLE Epoch: 7/3/2021
Index Date (LANDSAT-8) Time (LANDSAT-8) Lat,Lon (LANDSAT-8) SZA (LANDSAT-8 ) Date (METOP-A) Time (METOP-A) Lat,Lon (METOP-A) SZA (METOP-A ) Distance(km) Time Diff (sec)
1 07/03/2021 20:11:17 -81.37, 101.62 119.05 07/03/2021 20:10:29 -81.36, 101.55 119.09 1.73 48
2 07/03/2021 21:00:44 81.36, -90.97 60.93 07/03/2021 21:01:10 81.36, -91.10 60.92 2.23 26
3 07/06/2021 15:45:33 -81.37, 167.89 118.82 07/06/2021 15:44:50 -81.36, 168.06 118.82 3.09 43
4 07/06/2021 16:35:00 81.35, -24.73 61.15 07/06/2021 16:35:31 81.36, -24.61 61.18 2.06 31
5 07/09/2021 11:19:48 -81.36,-125.87 118.54 07/09/2021 11:19:11 -81.36,-125.83 118.54 1.15 37
6 07/09/2021 12:09:14 81.36, 41.86 61.48 07/09/2021 12:09:51 81.35, 41.87 61.50 0.98 37
7 07/12/2021 06:54:03 -81.36, -59.28 118.16 07/12/2021 06:53:32 -81.36, -59.35 118.18 1.29 31
8 07/12/2021 07:43:30 81.35, 108.04 61.81 07/12/2021 07:44:13 81.36, 107.94 61.82 2.25 43
9 07/15/2021 02:28:18 -81.37, 7.28 117.73 07/15/2021 02:27:53 -81.36, 7.11 117.77 3.24 25



Historial Predications of SNOs between LANDSAT-8 and METOP-A
